DECAYED

NOAA 16 DEB, 41664 (Decayed)

Orbit data source: Space-Track

NOAA 16 DEB, 41664 was space debris in SSO originally from a launch on Thu, 21 Sep 2000 UTC launched from the Air Force Western Test Range (AFWTR). Debris objects in space refer to the collection of defunct objects orbiting the Earth. Examples of debris include non-operational satellites, rocket bodies, and fragments generated from explosions, collisions, or faulty payload assembly.

Not visible in the next 10 days
Identifier
41664, 2000-055PD
Orbit
Decayed
Last TLE update
5 months ago
Origin
Manufacturer
Unknown
Mission
Decayed spacecraft
Bus & Motor
Unknown
Mass
Unknown
Launch date (UTC)
2000-09-21 (25 years ago)
Launch vehicle
Unknown
Launch site
Air Force Western Test Range (AFWTR)
Object type
Payload
Rocket body
Debris
Shape & HBR
Unknown
Radar Cross Section
Small (<0.1 m²)

Expand to show TLE details & history

TLE from 5 months ago
0 NOAA 16 DEB
1 41664U 00055PD  24356.44965467  .00850626  00000-0  28765-1 0  9992
2 41664  98.8529 168.0264 0019394 302.0488  57.8862 15.27804096451482
Epoch: 2024-12-21T10:47Z
Definitive object data (Epoch: 2024-12-21T10:47:30.163Z)
Latitude
-0.00011°
Longitude
-84.34991°
Altitude
478.377 km
Speed
7.63 km/s
True Right ascension
11h 12m 06s
True Declination
0° 00' 00"
Sunlit
Object was in daylight at TLE epoch
Visualization observer readout
Visualization observer readout
Orbital elements
Apogee altitude
492.701 km
Perigee altitude
466.102 km
Semi-major axis
6,857.539 km
Eccentricity
0.0019394
Inclination
98.8529°
RAAN
168.0264°
Arg. of periapsis
302.0488°
True anomaly
58.07468°
Mean anomaly
57.8862°
Eccentric anomaly
57.98041°
Mean motion
3.822 °/min
BSTAR
0.028765
Orbital period
94.19 mins
Loading maneuver chart data...
Loading SW <> Apogee altitude chart data...
Loading historical data...
Loading historical data...
Loading historical data...
Loading historical data...
Loading historical data...
Loading historical data...
Loading historical data...

NOAA 16 DEB Visibility forecast

Observer location: undefined°, undefined°

This satellite is decayed
Span
Click to sort rows by Start time (UTC) header in descending order
Start Az.
Max El. time (UTC)
Max El. Az.
Max El.
End time (UTC)
End Az.
|